Gainesville, GA

2:28 AM EST on December 06, 2016 (GMT -0500)
Gilmer Memorial

Weather History for KGVL - November, 2012

Change the Weather History Date:

Sunday, November 11, 2012

  Actual Average Record
Temperature  
Mean Temperature 54 °F 54 °F  
Max Temperature 64 °F 64 °F 78 °F (1931)
Min Temperature 45 °F 45 °F 24 °F (1941)
Degree Days  
Heating Degree Days 10 11  
Month to date heating degree days 106  
Since 1 July heating degree days 264  
Growing Degree Days 4 (Base 50)    
Moisture  
Dew Point 44 °F    
Average Humidity 64    
Maximum Humidity 77    
Minimum Humidity 52    
Precipitation  
Precipitation 0.00 in 0.13 in 1.25 in (2002)
Month to date precipitation 1.31  
Year to date precipitation 46.32  
Sea Level Pressure  
Sea Level Pressure 30.37 in    
Wind  
Wind Speed 4 mph (ESE)    
Max Wind Speed 9 mph    
Max Gust Speed -    
Visibility 10 miles    
Events      
T = Trace of Precipitation, MM = Missing Value Source: NWS Daily Summary

Daily Weather History Graph

Daily Weather History Graph

Search for Another Location

Airport or City:

Trip Planner

Search our weather history database for the weather conditions in past years. The results will help you decide how hot, cold, wet, or windy it might be!

Date:

Astronomy

Nov. 11, 2012 Rise Set
Actual Time 7:04 AM EST 5:33 PM EST
Civil Twilight 6:38 AM EST 5:59 PM EST
Nautical Twilight 6:08 AM EST 6:30 PM EST
Astronomical Twilight 5:38 AM EST 6:59 PM EST
Moon 4:23 AM EST (11/11) 3:52 PM EST (11/11)
Length of Visible Light 11h 21m
Length of Day
10h 28m
Waning Crescent, 7% of the Moon is Illuminated
Nov 11
Waning Crescent
Nov 13
New
Nov 20
First Quarter
Nov 28
Full
Dec 6
Last Quarter

Hourly Weather History & Observations

Time (EST) Temp. Windchill Dew Point Humidity Pressure Visibility Wind Dir Wind Speed Gust Speed Precip Events Conditions
12:53 AM 48.0 °F - 37.0 °F 66% 30.35 in 10.0 mi Calm Calm - N/A   Clear
1:53 AM 46.0 °F - 37.0 °F 71% 30.34 in 10.0 mi Calm Calm - N/A   Clear
2:53 AM 46.0 °F 44.8 °F 35.1 °F 66% 30.35 in 10.0 mi East 3.5 mph - N/A   Clear
3:53 AM 51.1 °F - 34.0 °F 52% 30.34 in 10.0 mi ESE 4.6 mph - N/A   Clear
4:53 AM 46.9 °F - 34.0 °F 61% 30.35 in 10.0 mi East 3.5 mph - N/A   Clear
5:53 AM 46.0 °F 43.9 °F 35.1 °F 66% 30.37 in 10.0 mi East 4.6 mph - N/A   Clear
7:53 AM 45.0 °F - 36.0 °F 71% 30.43 in 10.0 mi Calm Calm - N/A   Clear
8:53 AM 53.1 °F - 39.9 °F 61% 30.43 in 10.0 mi ENE 5.8 mph - N/A   Clear
10:53 AM 60.1 °F - 45.0 °F 57% 30.45 in 10.0 mi ESE 6.9 mph - N/A   Overcast
11:53 AM 61.0 °F - 46.0 °F 58% 30.44 in 10.0 mi ESE 8.1 mph - N/A   Overcast
12:53 PM 62.1 °F - 46.9 °F 58% 30.41 in 10.0 mi SSE 6.9 mph - N/A   Overcast
1:53 PM 62.1 °F - 48.9 °F 62% 30.39 in 10.0 mi SE 8.1 mph - N/A   Overcast
2:53 PM 64.0 °F - 48.9 °F 58% 30.36 in 10.0 mi ESE 6.9 mph - N/A   Overcast
3:53 PM 64.9 °F - 50.0 °F 58% 30.34 in 10.0 mi ESE 9.2 mph - N/A   Clear
4:53 PM 63.0 °F - 48.9 °F 60% 30.36 in 10.0 mi SSE 4.6 mph - N/A   Mostly Cloudy
5:53 PM 61.0 °F - 48.9 °F 64% 30.35 in 10.0 mi Calm Calm - N/A   Scattered Clouds
6:53 PM 60.1 °F - 48.9 °F 67% 30.35 in 10.0 mi East 4.6 mph - N/A   Scattered Clouds
7:53 PM 59.0 °F - 48.0 °F 67% 30.35 in 10.0 mi East 4.6 mph - N/A   Clear
8:53 PM 59.0 °F - 48.0 °F 67% 30.35 in 10.0 mi East 5.8 mph - N/A   Clear
9:53 PM 59.0 °F - 48.9 °F 69% 30.34 in 10.0 mi East 6.9 mph - N/A   Clear
10:53 PM 59.0 °F - 50.0 °F 72% 30.35 in 10.0 mi East 5.8 mph - N/A   Mostly Cloudy
11:53 PM 55.9 °F - 48.9 °F 77% 30.34 in 10.0 mi East 4.6 mph - N/A   Clear